| time (UTC) | temp F | wind direction | speed MPH | gust MPH | rain 1hr in | rain 24hr in | rain mn in | humidity % | barometer mb |
| 20260510153025 | 73 | 71 | 2.0 | 5.0 | 0.00 | 0.72 | 0.00 | 81 | 1017.2 |
| 20260510150015 | 71 | 54 | 4.0 | 6.0 | 0.00 | 0.81 | 0.00 | 85 | 1017.0 |
| 20260510144520 | 70 | 72 | 2.0 | 5.0 | 0.00 | 0.85 | 0.00 | 88 | 1017.1 |
| 20260510143023 | 69 | 38 | 1.0 | 4.0 | 0.00 | 0.94 | 0.00 | 93 | 1016.9 |
| 20260510141529 | 68 | 60 | 2.0 | 5.0 | 0.00 | 1.01 | 0.00 | 94 | 1017.1 |
| 20260510140009 | 67 | 80 | 0.0 | 3.0 | 0.00 | 1.05 | 0.00 | 95 | 1017.1 |
| 20260510134513 | 67 | 79 | 0.0 | 5.0 | 0.00 | 1.14 | 0.00 | 96 | 1017.0 |
| 20260510133017 | 66 | 60 | 1.0 | 6.0 | 0.00 | 1.31 | 0.00 | 96 | 1017.0 |
| 20260510131519 | 66 | 63 | 2.0 | 4.0 | 0.00 | 1.38 | 0.00 | 96 | 1016.6 |
| 20260510130026 | 65 | 122 | 2.0 | 5.0 | 0.00 | 1.43 | 0.00 | 96 | 1016.5 |
| 20260510124512 | 65 | 157 | 0.0 | 2.0 | 0.00 | 1.46 | 0.00 | 96 | 1016.4 |
| 20260510123017 | 64 | 94 | 0.0 | 2.0 | 0.00 | 1.51 | 0.00 | 96 | 1016.1 |
| 20260510121518 | 64 | 129 | 0.0 | 3.0 | 0.00 | 1.72 | 0.00 | 96 | 1015.7 |
| 20260510120022 | 64 | 63 | 1.0 | 2.0 | 0.00 | 2.64 | 0.00 | 96 | 1015.5 |
| 20260510114534 | 64 | 60 | 0.0 | 3.0 | 0.00 | 3.35 | 0.00 | 96 | 1015.4 |
| 20260510113014 | 64 | 64 | 0.0 | 2.0 | 0.00 | 3.35 | 0.00 | 96 | 1015.1 |
| 20260510111520 | 64 | 64 | 0.0 | 1.0 | 0.00 | 3.35 | 0.00 | 96 | 1014.6 |
| 20260510110023 | 64 | 65 | 1.0 | 2.0 | 0.00 | 3.36 | 0.00 | 96 | 1014.2 |
| 20260510104532 | 64 | 54 | 1.0 | 2.0 | 0.00 | 3.36 | 0.00 | 96 | 1014.0 |
| 20260510094534 | 64 | 64 | 1.0 | 2.0 | 0.00 | 3.36 | 0.00 | 96 | 1013.5 |
| 20260510093024 | 65 | 62 | 0.0 | 2.0 | 0.00 | 3.36 | 0.00 | 96 | 1013.4 |
| 20260510091514 | 65 | 62 | 0.0 | 2.0 | 0.00 | 3.36 | 0.00 | 95 | 1013.4 |
| 20260510090016 | 65 | 60 | 1.0 | 2.0 | 0.00 | 3.36 | 0.00 | 95 | 1013.5 |
| 20260510084523 | 65 | 64 | 0.0 | 3.0 | 0.00 | 3.36 | 0.00 | 95 | 1013.4 |
| 20260510083025 | 65 | 67 | 1.0 | 2.0 | 0.00 | 3.36 | 0.00 | 95 | 1013.3 |
| 20260510081534 | 65 | 52 | 0.0 | 3.0 | 0.00 | 3.39 | 0.00 | 95 | 1013.3 |
| 20260510080015 | 66 | 68 | 1.0 | 3.0 | 0.00 | 3.42 | 0.00 | 95 | 1013.3 |
| 20260510074521 | 66 | 65 | 1.0 | 3.0 | 0.00 | 3.43 | 0.00 | 95 | 1013.3 |
| 20260510073025 | 66 | 66 | 0.0 | 2.0 | 0.00 | 3.43 | 0.00 | 95 | 1013.1 |
| 20260510071506 | 66 | 66 | 0.0 | 2.0 | 0.00 | 3.44 | 0.00 | 95 | 1012.8 |
| 20260510070016 | 66 | 51 | 0.0 | 1.0 | 0.00 | 3.47 | 0.00 | 95 | 1012.8 |
| 20260510064520 | 66 | 51 | 0.0 | 2.0 | 0.00 | 3.47 | 0.00 | 95 | 1013.1 |
| 20260510063025 | 66 | 64 | 0.0 | 1.0 | 0.00 | 3.48 | 0.00 | 95 | 1013.2 |
| 20260510061529 | 66 | 64 | 0.0 | 2.0 | 0.00 | 3.48 | 0.00 | 95 | 1013.1 |
| 20260510060012 | 66 | 64 | 0.0 | 1.0 | 0.00 | 3.48 | 0.00 | 95 | 1013.4 |
| 20260510054515 | 66 | 96 | 0.0 | 2.0 | 0.00 | 3.48 | 0.00 | 95 | 1013.4 |
| 20260510053021 | 66 | 46 | 0.0 | 1.0 | 0.00 | 3.48 | 0.00 | 95 | 1013.4 |
| 20260510051532 | 66 | 65 | 0.0 | 2.0 | 0.00 | 3.49 | 0.00 | 95 | 1013.1 |
| 20260510050027 | 66 | 319 | 0.0 | 2.0 | 0.00 | 3.51 | 0.00 | 95 | 1013.5 |
| 20260510044514 | 67 | 41 | 0.0 | 1.0 | 0.00 | 3.53 | 3.51 | 95 | 1013.3 |
| 20260510043022 | 67 | 41 | 0.0 | 1.0 | 0.00 | 3.54 | 3.51 | 95 | 1013.4 |
| 20260510041523 | 67 | 41 | 0.0 | 1.0 | 0.00 | 3.55 | 3.51 | 95 | 1013.1 |
| 20260510040026 | 67 | 41 | 0.0 | 1.0 | 0.00 | 3.57 | 3.51 | 95 | 1013.1 |
| 20260510034525 | 66 | 41 | 0.0 | 1.0 | 0.00 | 3.57 | 3.51 | 95 | 1013.5 |
| 20260510033016 | 66 | 156 | 0.0 | 1.0 | 0.00 | 3.57 | 3.51 | 95 | 1013.4 |
| 20260510031531 | 67 | 73 | 0.0 | 1.0 | 0.00 | 3.57 | 3.51 | 95 | 1013.4 |
| 20260510030028 | 67 | 51 | 0.0 | 1.0 | 0.00 | 3.57 | 3.51 | 95 | 1013.7 |
| 20260510024526 | 67 | 55 | 0.0 | 1.0 | 0.00 | 3.57 | 3.51 | 95 | 1013.5 |
| 20260510023028 | 67 | 52 | 0.0 | 2.0 | 0.00 | 3.57 | 3.51 | 95 | 1013.4 |
| 20260510021528 | 67 | 317 | 1.0 | 2.0 | 0.00 | 3.57 | 3.51 | 95 | 1013.3 |
| 20260510020024 | 67 | 165 | 0.0 | 1.0 | 0.00 | 3.57 | 3.51 | 95 | 1012.7 |
| 20260510014523 | 67 | 53 | 0.0 | 1.0 | 0.00 | 3.57 | 3.51 | 95 | 1013.3 |
| 20260510013026 | 67 | 279 | 0.0 | 1.0 | 0.01 | 3.57 | 3.51 | 95 | 1013.7 |
| 20260510011505 | 67 | 58 | 1.0 | 2.0 | 0.01 | 3.57 | 3.51 | 95 | 1012.6 |
| 20260510010005 | 67 | 223 | 0.0 | 1.0 | 0.01 | 3.57 | 3.51 | 95 | 1012.8 |
| 20260510004506 | 66 | 20 | 1.0 | 4.0 | 0.02 | 3.57 | 3.51 | 95 | 1012.5 |
| 20260510003010 | 66 | 51 | 0.0 | 3.0 | 0.01 | 3.56 | 3.50 | 95 | 1011.8 |
| 20260510001514 | 66 | 167 | 1.0 | 3.0 | 0.03 | 3.56 | 3.50 | 95 | 1012.0 |
| 20260510000011 | 66 | 89 | 2.0 | 4.0 | 0.06 | 3.59 | 3.50 | 94 | 1011.6 |
| 20260509234509 | 66 | 70 | 0.0 | 1.0 | 0.07 | 3.60 | 3.49 | 95 | 1012.3 |
| 20260509233009 | 66 | 281 | 0.0 | 2.0 | 0.08 | 3.61 | 3.49 | 94 | 1012.3 |
| 20260509231512 | 66 | 170 | 0.0 | 2.0 | 0.09 | 3.60 | 3.47 | 94 | 1011.8 |
| 20260509230016 | 66 | 148 | 0.0 | 1.0 | 0.10 | 3.57 | 3.44 | 94 | 1012.1 |
| 20260509224504 | 66 | 274 | 0.0 | 1.0 | 0.12 | 3.56 | 3.42 | 94 | 1012.4 |
| 20260509223005 | 66 | 56 | 1.0 | 2.0 | 0.14 | 3.59 | 3.41 | 94 | 1012.1 |
| 20260509220015 | 66 | 326 | 1.0 | 2.0 | 0.08 | 3.68 | 3.34 | 94 | 1012.4 |
| 20260509214520 | 66 | 233 | 1.0 | 3.0 | 0.06 | 3.69 | 3.30 | 94 | 1012.0 |
| 20260509213004 | 66 | 68 | 0.0 | 2.0 | 0.05 | 3.71 | 3.27 | 94 | 1011.8 |
| 20260509211514 | 66 | 236 | 0.0 | 1.0 | 0.08 | 3.74 | 3.26 | 94 | 1011.4 |
| 20260509210015 | 66 | 307 | 1.0 | 3.0 | 0.10 | 3.80 | 3.26 | 94 | 1011.7 |
| 20260509204518 | 66 | 14 | 1.0 | 4.0 | 0.15 | 3.85 | 3.24 | 94 | 1011.1 |
| 20260509203024 | 66 | 186 | 2.0 | 3.0 | 0.19 | 3.88 | 3.22 | 94 | 1011.7 |
| 20260509201506 | 66 | 207 | 1.0 | 2.0 | 0.21 | 3.87 | 3.18 | 94 | 1012.2 |
| 20260509200006 | 65 | 125 | 1.0 | 2.0 | 0.24 | 3.88 | 3.16 | 94 | 1011.9 |
| 20260509194516 | 65 | 65 | 1.0 | 4.0 | 0.21 | 3.87 | 3.09 | 94 | 1013.6 |
| 20260509193021 | 65 | 138 | 0.0 | 2.0 | 0.17 | 3.96 | 3.03 | 94 | 1012.9 |
| 20260509191526 | 65 | 128 | 0.0 | 2.0 | 0.12 | 4.07 | 2.97 | 94 | 1012.8 |
| 20260509190009 | 65 | 153 | 0.0 | 2.0 | 0.07 | 4.40 | 2.92 | 94 | 1012.8 |
| 20260509184516 | 65 | 129 | 0.0 | 2.0 | 0.03 | 4.73 | 2.88 | 94 | 1013.0 |
| 20260509183016 | 65 | 238 | 0.0 | 2.0 | 0.01 | 4.90 | 2.86 | 94 | 1012.6 |
| 20260509181520 | 65 | 105 | 0.0 | 2.0 | 0.01 | 5.20 | 2.85 | 93 | 1012.7 |
| 20260509180007 | 65 | 236 | 0.0 | 2.0 | 0.01 | 5.69 | 2.85 | 93 | 1012.9 |
| 20260509174512 | 65 | 210 | 1.0 | 5.0 | 0.01 | 5.83 | 2.85 | 93 | 1012.8 |
| 20260509171512 | 65 | 125 | 1.0 | 4.0 | 0.01 | 6.26 | 2.84 | 93 | 1012.9 |
| 20260509170012 | 65 | 112 | 0.0 | 1.0 | 0.02 | 6.26 | 2.84 | 94 | 1012.8 |
| 20260509164510 | 65 | 65 | 1.0 | 5.0 | 0.03 | 6.26 | 2.84 | 94 | 1012.5 |
| 20260509163013 | 65 | 96 | 0.0 | 3.0 | 0.04 | 6.25 | 2.83 | 94 | 1012.7 |
| 20260509160004 | 64 | 117 | 1.0 | 4.0 | 0.12 | 6.24 | 2.82 | 94 | 1013.1 |
| 20260509154508 | 64 | 169 | 1.0 | 3.0 | 0.15 | 6.23 | 2.81 | 94 | 1013.4 |